ROMMA est une association bénévole à but non lucratif. Votre soutien est indispensable : ADHERER à ROMMA ou FAIRE un DON

Chambon - (38, Isère)

Oisans (2460 m)   Longitude: 06° 10' 42" E   Latitude: 45° 01' 32" N Station partenaire n°803
 

Détail journalier du     <<     >>

Température Humidité Vent Dir Rafale Dir. rafale Neige 1 Neige 2
Heure (°C) (%) (km/h) (km/h) (cm) (cm)
01:00 4.1313SSO9SSO06
02:00 4.9284S10S16
03:00 6.8209NE25NE06
04:00 6.01910NNE20NNE06
05:00 6.8198N16N06
06:00 6.9185N12N06
07:00 7.7194NNE16NNE06
08:00 6.7182N15N06
09:00 7.9587NNE22ENE06
10:00 9.4638NNE22NE06
11:00 11.4595N13NNE04
12:00 11.0635OSO12OSO02
13:00 11.3529OSO16OSO03
14:00 11.14612OSO19OSO03
15:00 11.25816OSO26OSO03
16:00 10.47820OSO28OSO03
17:00 10.67820OSO28OSO03
18:00 9.58018OSO27OSO03
19:00 8.08516SO24OSO03
20:00 7.38617SO22SO03
21:00 7.28815SO20SO03
22:00 7.68717SSO32SSO03
23:00 8.08521SSO41SO03
minuit 8.38322SSO41SSO03

Graphique du 08-10-2019

 

Serveur OMMA